Change the Weather History Date:

Wednesday, October 5, 2011

  Actual Average Record
Temperature  
Mean Temperature 66 °F -  
Max Temperature 79 °F 70 °F 84 °F (2005)
Min Temperature 54 °F 50 °F 39 °F (1999)
Cooling Degree Days 1    
Growing Degree Days 16 (Base 50)    
Moisture  
Dew Point 48 °F    
Average Humidity 59    
Maximum Humidity 86    
Minimum Humidity 28    
Precipitation  
Precipitation 0.00 in - - ()
Sea Level Pressure  
Sea Level Pressure 30.15 in    
Wind  
Wind Speed 7 mph (ESE)    
Max Wind Speed 12 mph    
Max Gust Speed 17 mph    
Visibility 10 miles    
Events      
Averages and records for this station are not official NWS values.
T = Trace of Precipitation, MM = Missing Value Source: NWS Daily Summary

Daily Weather History Graph

Daily Weather History Graph

Search for Another Location

Airport or City:

Trip Planner

Search our weather history database for the weather conditions in past years. The results will help you decide how hot, cold, wet, or windy it might be!

Date:

Astronomy

Oct. 05, 2011 Rise Set
Actual Time 7:14 AM CDT 6:54 PM CDT
Civil Twilight 6:48 AM CDT 7:20 PM CDT
Nautical Twilight 6:19 AM CDT 7:49 PM CDT
Astronomical Twilight 5:49 AM CDT 8:19 PM CDT
Moon 3:26 PM CDT (10/5) 1:12 AM CDT (10/5)
Length of Visible Light 12h 31m
Length of Day
11h 39m
Waxing Gibbous, 66% of the Moon is Illuminated
Oct 5
Waxing Gibbous
Oct 11
Full
Oct 19
Last Quarter
Oct 26
New
Nov 2
First Quarter

Hourly Weather History & Observations

Time (CDT) Temp. Dew Point Humidity Pressure Visibility Wind Dir Wind Speed Gust Speed Precip Events Conditions
12:57 AM 55.9 °F 46.9 °F 72% 30.17 in 10.0 mi ESE 6.9 mph - N/A   Clear
1:57 AM 55.9 °F 50.0 °F 80% 30.18 in 10.0 mi ESE 5.8 mph - N/A   Clear
3:57 AM 55.0 °F 50.0 °F 83% 30.18 in 10.0 mi ESE 6.9 mph - N/A   Clear
4:57 AM 54.0 °F 50.0 °F 86% 30.18 in 10.0 mi ESE 8.1 mph - N/A   Clear
5:57 AM 54.0 °F 48.9 °F 83% 30.19 in 10.0 mi ESE 9.2 mph - N/A   Clear
6:57 AM 54.0 °F 48.0 °F 80% 30.20 in 10.0 mi ESE 8.1 mph - N/A   Clear
7:57 AM 55.0 °F 48.9 °F 80% 30.22 in 10.0 mi ESE 8.1 mph - N/A   Clear
9:57 AM 66.0 °F 48.0 °F 52% 30.22 in 10.0 mi SSE 8.1 mph - N/A   Clear
10:57 AM 71.1 °F 46.9 °F 42% 30.21 in 10.0 mi ESE 4.6 mph - N/A   Clear
11:57 AM 73.9 °F 46.9 °F 38% 30.19 in 10.0 mi SE 10.4 mph 17.3 mph N/A   Clear
1:57 PM 78.1 °F 44.1 °F 30% 30.14 in 10.0 mi Variable 5.8 mph - N/A   Clear
2:57 PM 78.1 °F 42.1 °F 28% 30.12 in 10.0 mi SE 11.5 mph 16.1 mph N/A   Clear
3:57 PM 77.0 °F 43.0 °F 30% 30.11 in 10.0 mi SSE 10.4 mph - N/A   Clear
4:57 PM 75.0 °F 44.1 °F 33% 30.10 in 10.0 mi SE 6.9 mph - N/A   Clear
6:57 PM 69.1 °F 50.0 °F 51% 30.09 in 10.0 mi East 6.9 mph - N/A   Clear
7:57 PM 66.0 °F 48.9 °F 54% 30.11 in 10.0 mi ESE 6.9 mph - N/A   Clear
8:57 PM 64.0 °F 48.0 °F 56% 30.11 in 10.0 mi ESE 4.6 mph - N/A   Clear
9:57 PM 64.0 °F 52.0 °F 65% 30.12 in 10.0 mi ESE 6.9 mph - N/A   Clear
10:57 PM 63.0 °F 52.0 °F 67% 30.12 in 10.0 mi ESE 6.9 mph - N/A   Clear
11:57 PM 61.0 °F 50.0 °F 67% 30.11 in 10.0 mi ESE 5.8 mph - N/A   Clear